Temp
13 12 12 12 13 13 13 14 14 15 16 17 18 19 19 20 21 21 21 23 23 23 23 24 25 25 25 24 25 22 21 23 26 24 27 25 26 27 24 23 22 22 20 22 25
12 12 13 13 13 13 14 15 15 16 17 18 19 19 19 20 21 21 23 23 23 23 24 23 24 25 22 25 23 21 20 24 26 25 24 25 25 24 24 22 21 21 21 23 23
12 12 13 14 14 15 15 16 17 17 18 18 19 19 20 20 20 22 24 23 23 23 23 23 23 25 24 25 25 23 22 24 26 26 25 25 25 25 22 22 20 20 20 21 21
12 14 14 15 15 16 16 17 17 18 18 19 19 20 20 20 23 23 24 23 23 23 24 24 24 24 24 24 25 25 25 26 26 26 26 24 25 24 22 22 21 20 20 20 19
14 14 15 16 16 16 17 18 18 19 19 19 20 20 20 20 20 24 23 23 23 24 23 23 24 24 24 24 25 25 25 26 25 25 25 25 24 24 22 22 20 20 20 19 18
15 16 16 16 17 17 18 18 19 19 19 20 20 20 20 20 24 24 23 23 23 23 24 23 24 24 23 24 24 25 24 24 24 25 25 24 24 24 22 20 19 20 19 18 18
16 16 17 17 17 18 18 19 19 20 20 20 20 20 19 20 24 23 23 23 24 24 23 24 24 24 24 25 25 24 25 24 23 23 23 24 23 21 21 19 19 18 17 18 17
17 17 17 17 18 18 19 19 20 20 20 20 20 19 18 23 24 23 23 24 24 24 24 24 24 23 24 25 25 24 23 21 22 21 23 23 20 21 19 19 18 18 16 17 17
17 18 18 18 19 19 20 20 20 21 20 20 20 19 19 23 23 24 24 23 24 24 24 25 24 23 24 21 20 20 20 20 21 21 22 22 21 21 18 19 19 18 17 17 16
17 18 18 19 19 19 20 21 21 21 21 20 19 19 20 22 24 24 24 24 23 23 23 23 19 19 18 18 19 20 19 20 21 22 21 20 21 20 20 19 20 18 17 17 17
17 18 18 18 19 19 21 21 18 19 19 19 20 19 23 23 24 23 24 23 23 22 20 21 19 18 18 19 21 21 21 22 23 23 21 21 22 22 20 17 18 17 17 17 18
16 17 18 19 19 19 19 19 19 19 17 18 19 20 22 24 23 22 23 22 21 19 20 20 18 20 20 20 20 21 20 20 21 23 21 20 21 22 19 18 19 19 18 18 18
16 17 18 19 19 20 19 19 19 19 17 18 20 20 22 23 22 21 21 20 20 19 19 17 20 21 21 21 21 21 21 21 22 24 22 22 21 21 21 20 21 21 20 19 19
15 16 18 20 19 19 19 19 19 20 16 20 22 23 23 22 21 23 23 21 21 19 19 18 21 22 21 21 21 21 21 22 23 22 20 21 22 20 20 20 19 21 21 20 19
16 16 17 19 19 19 20 19 19 19 20 22 22 23 22 22 22 22 22 23 21 21 21 20 23 20 21 22 22 22 22 22 23 21 20 20 18 22 21 21 22 21 21 20 20
17 17 17 18 18 20 19 19 19 18 20 22 21 22 21 21 22 21 22 22 22 21 20 19 21 22 22 23 22 22 23 19 17 17 17 20 19 24 22 23 25 25 22 20 19
17 18 18 17 18 19 19 18 17 18 23 23 22 21 20 21 21 20 20 19 19 19 18 19 21 22 23 23 22 22 19 17 18 16 19 19 19 24 21 21 21 23 23 18 18
17 18 18 19 19 19 19 17 20 20 21 22 21 21 20 21 20 20 19 18 18 19 17 18 20 20 21 23 21 18 20 17 18 18 22 18 18 23 21 25 26 23 21 19 16
17 17 18 18 19 19 14 16 18 19 21 20 20 20 21 22 22 21 18 17 19 18 18 18 18 21 21 23 22 21 18 21 20 19 17 18 19 21 20 21 20 20 20 18 16
16 16 18 18 19 19 14 16 17 20 19 19 19 20 19 19 19 18 20 21 21 19 19 19 19 22 22 22 21 21 20 19 16 18 18 19 18 21 21 24 23 20 18 19 16
16 13 18 18 19 13 14 14 18 18 18 18 17 17 18 18 18 18 19 20 16 17 18 18 17 20 21 19 20 19 20 18 17 17 20 20 22 19 23 23 22 21 20 19 16
11 13 18 18 13 9 13 16 16 17 17 17 17 17 16 16 16 17 18 18 15 15 15 16 15 16 19 21 21 22 22 21 20 20 15 21 22 24 21 20 20 22 19 16 16
7 9 17 17 12 11 12 14 15 15 15 16 16 17 16 15 15 16 16 16 15 15 14 15 15 15 17 18 17 17 18 19 20 21 20 20 22 23 23 23 21 19 18 17 17
7 10 9 8 8 10 10 11 13 14 14 14 14 14 13 13 14 14 14 15 14 15 16 13 13 14 14 13 10 12 11 13 13 17 20 20 21 23 22 20 20 19 17 17 17
6 7 8 7 8 7 9 11 11 12 12 12 12 12 11 10 11 12 12 13 14 14 12 13 11 12 12 13 13 12 12 11 11 11 11 14 17 23 23 23 23 21 18 16 16
7 7 6 6 7 8 8 10 11 11 10 11 10 11 11 10 11 10 11 11 11 12 12 10 11 13 12 13 12 12 12 13 12 13 13 16 16 21 23 21 21 22 19 18 17
8 8 6 7 7 7 7 10 10 9 10 11 10 9 9 11 10 10 10 10 10 10 10 10 10 9 10 12 13 11 13 13 15 16 15 13 13 14 13 14 20 20 20 20 20
Height
819 819 819 819 818 817 817 816 816 816 816 815 815 813 812 811 809 809 807 806 805 804 804 803 803 803 801 801 800 805 833 839 823 829 817 808 811 805 807 815 816 815 816 813 819
820 820 819 819 819 818 818 817 816 816 816 816 815 813 812 810 809 807 805 804 804 804 805 804 803 802 806 803 805 818 838 827 809 809 814 808 807 807 813 819 820 817 813 812 817
821 820 820 820 819 819 818 818 817 817 816 816 815 813 812 810 810 803 802 803 804 805 805 804 803 803 808 803 806 813 827 810 805 801 802 807 808 804 813 821 814 816 814 813 816
821 821 820 820 819 819 818 817 817 817 816 815 814 813 811 811 818 802 802 803 804 805 804 803 803 808 812 813 803 813 805 802 802 799 801 810 803 807 807 804 798 804 805 809 811
822 821 820 820 819 818 817 817 817 817 816 815 814 812 812 812 807 802 802 803 803 804 804 804 807 808 813 810 805 810 805 800 800 800 801 801 806 806 806 798 798 802 805 807 809
823 822 821 821 820 818 817 817 816 816 815 814 813 812 812 816 800 801 801 802 803 803 803 804 804 804 808 807 809 802 804 803 803 802 801 806 805 803 799 799 800 800 802 803 803
824 823 822 821 820 819 818 817 816 815 814 814 813 812 811 807 800 801 801 802 802 803 803 802 802 804 805 805 798 802 810 807 807 804 806 801 811 806 795 798 800 801 800 800 799
824 824 823 821 820 819 817 816 815 814 814 813 813 812 811 800 800 800 801 801 801 802 802 802 801 801 804 799 802 811 814 830 807 805 801 805 821 795 793 797 801 800 799 798 796
823 822 821 820 819 817 816 815 813 813 813 813 813 812 810 799 799 798 799 800 800 801 801 801 801 805 803 819 831 825 839 833 818 801 801 807 811 788 789 793 795 796 795 794 794
822 821 820 819 817 815 814 812 811 812 812 812 813 817 803 799 796 796 799 800 800 800 803 803 810 817 821 830 846 834 834 824 818 800 803 809 802 791 787 791 785 786 788 789 788
821 820 819 818 816 815 812 810 813 814 811 808 805 805 797 797 797 798 798 800 800 804 817 808 822 826 816 811 809 813 818 813 800 791 802 803 794 784 782 789 786 784 782 781 776
822 820 818 817 815 814 813 812 814 817 816 798 798 799 797 797 800 797 800 806 808 818 811 817 825 799 804 806 810 812 817 816 801 787 796 796 789 775 780 778 773 768 770 769 770
822 819 817 815 814 814 814 815 814 814 819 802 794 794 793 796 799 798 797 802 809 815 815 824 803 790 800 804 808 807 808 808 803 785 787 789 784 778 765 763 758 755 754 756 755
821 818 815 813 815 813 813 813 812 812 831 810 798 792 791 791 799 787 789 798 805 812 812 813 792 793 800 800 798 805 789 791 794 800 816 789 786 776 768 761 755 748 743 742 741
819 817 814 811 811 812 813 811 810 811 845 801 798 792 793 800 797 792 789 792 803 803 804 807 791 797 796 786 786 789 781 787 786 797 799 796 812 764 757 759 746 738 729 724 724
817 816 814 813 811 811 810 810 811 832 839 804 798 800 803 798 797 794 794 792 793 798 796 795 781 783 784 774 776 776 783 795 802 808 818 787 798 740 755 741 729 717 717 714 717
815 813 812 813 812 811 810 809 835 844 798 805 802 801 803 802 798 796 800 804 811 815 813 794 781 772 769 781 777 778 798 824 822 824 798 775 791 736 732 728 725 716 707 706 706
812 810 810 812 813 813 812 823 834 814 808 797 801 797 805 795 797 794 802 810 803 804 812 808 792 775 763 764 773 784 786 808 816 813 774 777 777 730 719 704 699 703 700 702 706
811 811 812 813 812 814 821 842 831 820 807 811 804 805 801 793 794 793 803 803 792 793 807 801 787 758 754 748 757 771 787 765 783 784 797 773 748 720 714 711 706 705 702 700 700
814 814 816 815 815 815 830 837 825 813 814 811 820 808 813 808 810 807 797 784 784 781 780 784 782 755 751 751 750 758 760 783 792 792 792 762 762 737 718 703 698 703 701 693 695
816 822 821 819 819 826 841 839 823 817 819 820 821 819 813 812 807 807 799 788 795 790 784 782 784 754 754 763 763 765 762 765 769 774 764 757 734 714 703 696 697 693 690 688 690
822 833 823 821 834 845 841 832 827 825 820 820 818 815 816 816 811 808 801 795 798 800 800 792 788 776 757 741 736 735 738 738 752 750 765 738 709 688 697 697 695 685 681 685 686
838 838 826 824 845 848 843 836 832 834 831 825 824 817 818 818 820 803 802 796 800 803 805 798 787 783 760 751 750 755 748 746 730 726 729 731 702 689 686 686 688 689 685 682 681
841 848 840 838 849 853 857 848 841 834 832 832 827 824 827 825 819 813 809 803 807 803 797 802 796 784 780 783 799 786 783 774 777 744 722 714 699 689 691 694 687 683 680 677 676
848 860 859 863 857 861 857 850 845 842 838 834 830 833 835 833 823 814 813 808 803 798 803 801 798 794 789 782 781 778 777 779 780 772 770 738 722 685 679 677 672 672 675 677 677
858 862 862 864 861 860 857 849 845 843 846 840 838 833 833 834 828 820 817 815 810 800 799 799 794 781 776 770 766 761 764 757 757 745 744 726 712 694 674 672 667 665 670 669 668
859 860 861 862 860 862 860 850 847 847 840 833 835 834 830 823 820 815 812 807 805 802 795 793 788 789 775 761 757 754 741 738 726 716 722 732 723 714 707 694 671 660 657 651 649
Wind_Speed
3 1 1 3 4 4 3 3 2 2 1 2 1 1 3 6 3 3 3 3 2 3 4 5 2 2 1 2 2 3 4 2 4 6 4 4 5 1 3 6 2 2 6 8 26
6 3 2 0 1 2 2 2 2 1 1 1 0 3 5 7 5 6 6 4 2 3 1 4 3 3 2 1 2 4 4 7 4 4 6 6 6 9 5 5 1 1 2 23 26
7 5 4 2 1 0 1 1 1 0 0 1 3 5 6 6 2 4 5 4 2 3 3 5 5 2 1 2 2 4 5 5 3 1 5 5 4 4 9 5 7 11 10 10 15
8 7 5 4 3 2 2 2 1 2 2 3 6 7 8 2 3 2 4 4 2 4 4 3 1 1 2 3 3 3 5 4 3 1 4 5 4 5 8 8 10 14 17 14 9
7 6 5 4 4 3 3 2 2 3 4 5 7 9 2 2 6 3 3 3 4 3 3 2 1 2 3 4 2 4 4 4 4 4 3 2 7 7 8 5 6 12 13 12 10
6 6 5 5 4 4 3 3 3 4 5 5 7 9 1 2 3 4 4 4 4 3 4 4 3 3 4 4 6 4 5 4 5 4 3 4 5 4 6 4 8 15 15 11 12
7 7 7 7 8 7 7 6 6 6 7 6 6 7 2 9 4 5 4 4 4 5 2 2 1 2 3 3 3 3 3 2 5 5 5 5 7 11 5 7 11 11 10 10 12
5 7 8 9 9 9 9 9 8 8 8 8 8 5 6 4 7 9 7 6 4 6 6 5 1 1 2 3 3 4 2 1 5 8 5 8 11 10 10 13 12 12 11 10 12
5 5 6 8 9 11 11 12 10 9 9 8 6 0 8 2 6 13 10 4 9 6 5 5 0 3 1 4 4 3 4 7 7 12 4 7 9 7 10 15 15 15 14 14 11
7 6 7 8 9 10 12 9 5 7 4 6 5 3 4 4 4 7 10 6 3 2 2 1 3 2 2 4 7 7 6 5 6 6 6 8 16 9 5 15 20 17 17 15 15
9 7 6 7 9 11 12 1 4 2 2 8 5 4 1 0 5 4 6 3 0 2 5 3 3 9 13 10 3 4 5 5 4 6 9 15 20 19 12 9 13 13 15 17 21
15 10 8 7 7 10 5 3 2 2 7 11 13 7 10 4 2 4 7 3 3 6 4 0 9 15 6 7 8 8 8 9 8 8 10 9 20 18 7 10 16 21 17 20 17
16 14 9 7 6 3 3 2 3 4 2 6 5 5 5 10 4 5 13 5 5 5 7 6 7 4 9 7 8 11 14 6 9 3 4 4 11 8 9 16 19 20 18 19 21
16 15 12 7 2 3 3 4 3 3 4 5 1 3 3 4 5 9 21 7 2 9 6 7 13 15 6 8 14 16 8 14 10 4 7 6 14 8 7 15 10 20 20 22 22
15 15 14 5 1 2 2 5 4 2 4 1 1 2 1 3 5 2 5 1 5 5 2 8 4 8 15 18 8 9 8 9 6 5 1 5 4 3 4 7 15 13 21 23 22
13 13 13 4 4 1 6 5 1 5 4 1 2 1 2 2 3 3 2 2 2 4 6 11 4 3 5 6 9 4 3 6 4 3 5 10 8 24 9 15 14 15 11 16 17
14 10 10 7 2 6 8 2 4 3 4 1 0 3 4 4 4 7 6 5 5 2 5 5 10 6 6 6 2 4 6 3 4 2 11 11 8 22 8 8 11 15 16 11 14
15 6 4 5 2 6 5 5 3 3 4 3 5 3 7 5 6 2 4 4 6 3 3 4 12 9 9 20 13 9 9 7 8 7 12 6 10 13 12 20 20 15 12 6 9
13 5 5 9 4 1 5 3 5 2 5 8 7 3 3 2 3 2 7 7 8 15 9 5 9 6 4 14 14 9 9 9 7 1 2 6 9 11 8 10 9 11 9 11 11
7 4 8 11 3 4 4 3 4 4 7 4 2 5 4 7 9 7 3 2 4 8 9 4 17 12 11 2 3 10 6 2 0 7 11 10 6 12 5 15 14 10 12 12 9
5 4 12 7 3 5 2 5 4 11 9 6 7 9 10 7 8 6 6 8 10 8 7 4 7 14 3 6 8 2 9 5 5 7 13 16 12 9 17 16 12 12 13 14 12
4 3 11 11 4 2 1 4 7 7 8 5 5 4 3 10 7 6 7 6 8 5 6 4 5 9 14 12 13 19 17 21 13 16 5 15 23 2 7 8 9 15 10 7 8
3 2 7 7 3 4 6 7 4 7 6 5 5 3 9 5 7 3 7 10 9 11 12 8 4 9 14 9 5 5 8 14 11 15 21 19 23 6 11 14 9 9 9 9 10
3 4 4 5 3 4 4 5 6 8 3 5 6 4 10 4 6 10 11 8 14 15 13 3 5 10 10 5 7 10 23 22 12 12 19 22 31 26 12 8 10 10 12 10 12
4 1 2 4 3 3 3 3 4 4 5 6 4 6 6 5 14 7 17 14 5 10 3 3 9 13 18 23 22 21 22 24 23 17 11 26 30 27 21 19 21 16 7 7 10
3 3 3 2 2 5 3 2 3 3 5 6 4 11 11 9 12 16 13 11 9 6 5 6 15 14 18 21 19 20 17 21 24 23 23 23 29 22 26 15 14 16 10 12 13
6 5 3 4 2 2 3 0 5 13 9 6 10 15 13 13 8 12 12 12 12 17 19 14 12 6 19 20 19 15 15 18 15 15 12 17 14 21 20 26 22 15 15 20 19
Wind_Direction
58 55 260 258 247 240 235 225 205 196 209 179 161 335 326 316 312 287 254 207 247 317 325 320 288 275 297 346 66 76 70 199 197 151 229 184 152 56 61 111 62 303 159 193 164
63 67 68 270 261 246 238 238 236 211 171 177 350 335 334 333 317 261 240 230 258 300 278 13 10 320 8 237 31 94 125 213 198 198 205 198 167 151 126 142 44 36 54 159 157
42 53 63 67 54 353 333 336 327 136 28 349 342 335 333 333 325 240 200 227 207 251 270 306 312 230 203 144 190 176 191 214 223 201 153 181 185 183 133 230 194 178 171 177 166
36 57 57 54 46 45 51 49 31 336 342 343 338 337 324 308 196 219 213 193 183 226 288 333 306 60 175 200 227 181 229 191 208 152 129 184 169 206 182 214 176 178 177 177 189
55 58 56 50 37 25 29 2 339 323 330 338 341 342 350 353 252 209 173 166 201 233 258 323 231 190 213 219 216 194 235 213 180 192 226 164 211 205 221 240 200 168 171 184 189
34 31 28 16 6 7 349 330 313 308 317 329 342 343 62 262 188 190 167 185 215 232 268 223 207 217 278 243 172 211 211 189 206 230 247 197 242 176 229 179 158 170 187 192 187
11 8 3 357 350 345 335 321 310 303 306 313 329 349 291 234 210 189 178 198 216 226 295 349 231 83 325 276 220 153 144 265 229 214 241 146 270 229 190 179 168 191 199 202 208
2 354 349 345 341 337 329 316 302 292 293 302 315 317 250 215 206 209 215 236 234 223 247 290 309 100 215 283 11 157 77 220 264 173 244 134 260 247 187 169 196 203 209 211 219
343 338 337 338 339 338 334 320 302 285 289 292 314 69 271 226 214 222 203 215 224 234 241 275 111 205 32 100 7 334 227 216 301 196 147 171 257 256 172 189 204 210 212 215 224
11 347 336 334 333 334 333 317 289 283 291 288 268 354 268 238 190 184 200 218 196 188 348 164 52 152 80 119 215 207 222 238 223 218 195 211 250 257 207 197 216 212 215 215 218
27 10 350 337 334 334 348 49 15 357 195 201 197 229 349 350 146 184 187 195 207 122 192 227 146 215 201 204 167 196 216 231 246 218 182 222 236 246 235 209 232 228 218 216 219
16 2 346 334 328 327 349 57 153 252 302 241 241 260 271 232 283 251 185 165 177 217 191 221 231 232 199 216 225 241 260 266 270 252 181 238 243 243 208 221 219 227 221 221 222
12 6 351 333 329 51 37 56 344 335 277 296 210 190 192 177 234 243 155 183 199 220 215 191 237 194 191 224 214 235 234 240 235 286 251 313 268 250 243 229 232 238 231 224 217
356 359 354 347 135 0 122 3 335 345 45 285 296 310 101 110 274 215 184 161 244 230 210 234 243 258 201 231 203 241 211 231 245 182 248 159 278 228 240 247 220 234 235 229 220
344 347 354 359 291 158 316 322 311 124 353 199 283 323 21 163 322 25 183 153 217 252 110 249 271 229 244 234 182 237 187 207 216 217 5 207 272 203 249 267 265 240 233 228 222
336 331 341 317 297 275 322 308 200 41 268 117 105 165 88 259 271 331 100 27 219 250 227 237 269 277 236 239 212 139 105 33 43 95 256 211 182 272 218 224 245 259 262 227 207
334 325 312 299 301 341 326 53 38 143 317 36 305 179 201 236 238 185 189 182 204 260 268 307 241 213 192 235 347 157 109 271 281 191 243 168 202 241 251 239 221 248 268 232 199
340 326 312 298 353 342 353 44 188 250 262 52 350 249 196 189 244 229 154 231 244 217 299 263 286 176 209 207 198 204 178 185 211 221 258 175 227 245 219 243 255 233 244 227 201
0 28 31 350 3 285 66 50 223 262 350 351 332 308 264 120 295 326 210 211 219 189 195 224 255 258 196 215 183 208 214 222 283 160 320 218 274 281 256 261 262 242 240 229 205
17 40 28 30 93 62 76 241 279 28 356 9 308 255 306 340 333 359 285 234 266 193 239 288 289 242 263 186 251 201 168 185 175 249 251 259 264 243 308 241 246 254 233 238 208
44 54 3 9 355 46 146 242 326 351 358 350 321 295 296 309 259 263 250 327 356 346 304 278 228 269 206 197 211 197 224 218 179 191 242 258 254 197 228 232 235 235 233 233 208
22 60 356 359 48 29 41 336 344 333 6 335 337 337 12 322 285 293 270 243 33 14 343 304 289 279 265 245 233 232 229 221 231 241 243 246 257 177 221 263 254 252 242 226 206
49 279 5 359 75 2 336 329 320 21 334 319 297 343 331 315 320 296 347 354 21 11 357 349 296 308 298 301 6 344 337 309 255 246 243 246 260 207 250 252 254 260 263 228 211
64 22 335 35 38 73 0 285 346 329 294 340 280 26 357 326 322 310 325 350 346 313 308 297 272 286 285 338 336 306 316 316 349 280 269 247 263 265 271 267 268 263 252 231 208
32 34 187 328 355 341 245 275 289 325 1 351 325 8 329 290 305 264 324 313 273 289 159 243 264 262 262 277 282 280 270 279 286 293 288 291 292 273 261 252 246 254 285 245 225
82 60 356 270 306 335 329 282 329 326 350 279 308 319 316 278 273 301 310 308 275 264 227 205 271 270 273 274 272 277 278 256 258 259 274 290 296 308 285 286 260 249 224 236 226
27 32 106 284 304 76 246 319 293 320 285 245 324 310 293 285 291 278 266 270 262 270 268 257 262 263 273 281 289 280 253 244 248 248 249 263 323 344 355 342 296 252 235 227 221